Location: Newark
(41.8083°N, 72.2500°W)
Time: 01:39:02
(UTC+00:00)

SR - Visible Passes

Search period start: 28 January 2022 00:00
Search period end: 07 February 2022 00:00
Orbit: 582 x 872 km, 66.7° (Epoch: 27 January)

Date Brightness Start Highest point End Pass type
(mag) Time Alt. Az. Time Alt. Az. Time Alt. Az.
28 Jan ? 22:58:47 10° NNW 23:03:26 55° ENE 23:08:30 10° SE visible
29 Jan ? 00:41:44 10° WNW 00:45:08 19° WSW 00:48:44 10° SSW visible
29 Jan ? 23:50:59 10° NW 23:55:27 39° WSW 00:00:17 10° S visible
30 Jan ? 23:00:51 10° NNW 23:05:39 80° WSW 23:10:52 10° SSE visible
31 Jan ? 23:53:50 10° WNW 23:57:27 21° WSW 00:01:17 10° SSW visible
01 Feb ? 23:03:11 10° NW 23:07:46 42° WSW 23:12:41 10° S visible
02 Feb ? 23:58:27 10° W 23:59:20 10° WSW 00:00:14 10° WSW visible
03 Feb ? 23:05:57 10° WNW 23:09:46 23° WSW 23:13:48 10° SSW visible
05 Feb ? 11:07:59 10° ESE 11:08:59 11° ESE 11:10:00 10° E visible
05 Feb ? 23:09:56 10° W 23:11:40 12° WSW 23:13:25 10° SW visible
